STARLINK-32741 (62526 NORAD) Tracking and Keplerian Element Data

This shows tracking and keplerian element data for the satellite.

Feedback or suggestion? Click here.




ElementValue
Catalog62526
NameSTARLINK-32741
Epoch Orbit5434
Epoch Day354.22793504
Epoch Year2025
RAAN305.3668
Inclination43
Eccentricity0.000102
Argument of Perigee271.1139
Mean Anonmoly88.9595
Mean Motion15.27556128
Decay Rate2.054E-05
L11 62526U 25004R 25354.22793504 .00002054 00000+0 84207-4 0 9998
L22 62526 43.0000 305.3668 0001020 271.1139 88.9595 15.27556128 54340



Live tracking and technical data element details for STARLINK-32741 (NORAD 62526). STARLINK-32741 can be tracked NOW for your location showing map with azimuth and elevation plus other details from your city location.







IsCatalogInMostPopularTable: catalog: 62526, numindb: 74
Update: records affected: 1



GetName: 62526 STARLINK-32741

Hit Count: updated at: Tue, 17 Feb 2026 11:56:35 GMT